Farmingdale, NY

2:22 PM EDT on September 18, 2019 (GMT -0400)
Republic

Weather History for KFRG - August, 2019

Change the Weather History Date:

Wednesday, August 21, 2019

  Actual Average Record
Temperature  
Mean Temperature 78 °F -  
Max Temperature 84 °F 79 °F 90 °F (2005)
Min Temperature 73 °F 64 °F 53 °F (2007)
Cooling Degree Days 14    
Growing Degree Days 28 (Base 50)    
Moisture  
Dew Point 73 °F    
Average Humidity 86    
Maximum Humidity 94    
Minimum Humidity 60    
Precipitation  
Precipitation 0.10 in - - ()
Sea Level Pressure  
Sea Level Pressure 29.95 in    
Wind  
Wind Speed 8 mph ()    
Max Wind Speed 29 mph    
Max Gust Speed 37 mph    
Visibility 9.2 miles    
Events Rain , Thunderstorm    
Averages and records for this station are not official NWS values.
T = Trace of Precipitation, MM = Missing Value Source: Averaged Metar Reports

Daily Weather History Graph

Daily Weather History Graph

Search for Another Location

Airport or City:

Astronomy

Aug. 21, 2019 Rise Set
Actual Time 6:09 AM EDT 7:43 PM EDT
Civil Twilight 5:40 AM EDT 8:12 PM EDT
Nautical Twilight 5:05 AM EDT 8:46 PM EDT
Astronomical Twilight 4:28 AM EDT 9:23 PM EDT
Moon 10:57 PM EDT (8/21) 11:44 AM EDT (8/21)
Length of Visible Light 14h 31m
Length of Day
13h 33m
Waning Gibbous, 69% of the Moon is Illuminated
Aug 21
Waning Gibbous
Aug 23
Last Quarter
Aug 30
New
Sep 5
First Quarter
Sep 14
Full

Hourly Weather History & Observations

Time (EDT) Temp. Heat Index Dew Point Humidity Pressure Visibility Wind Dir Wind Speed Gust Speed Precip Events Conditions
12:53 AM 73.9 °F - 70.0 °F 87% 30.05 in 10.0 mi Calm Calm - N/A   Clear
1:51 AM 75.2 °F - 71.6 °F 89% 30.05 in 10.0 mi South 5.8 mph - N/A   Partly Cloudy
1:53 AM 75.0 °F - 72.0 °F 90% 30.05 in 10.0 mi South 5.8 mph - N/A   Scattered Clouds
2:04 AM 75.0 °F - 73.0 °F 94% 30.04 in 10.0 mi South 8.1 mph - N/A   Mostly Cloudy
2:53 AM 75.9 °F - 73.9 °F 94% 30.02 in 10.0 mi SSW 6.9 mph - N/A   Mostly Cloudy
3:53 AM 75.9 °F - 73.9 °F 94% 30.01 in 8.0 mi SW 5.8 mph - N/A   Overcast
4:35 AM 75.9 °F - 73.9 °F 94% 30.00 in 9.0 mi SSW 5.8 mph - N/A   Overcast
4:53 AM 75.9 °F - 73.9 °F 94% 29.99 in 9.0 mi SW 4.6 mph - N/A   Overcast
5:37 AM 75.9 °F - 73.9 °F 94% 29.98 in 10.0 mi SSW 4.6 mph - N/A   Scattered Clouds
5:53 AM 75.9 °F - 73.9 °F 94% 29.98 in 9.0 mi South 3.5 mph - N/A   Partly Cloudy
6:20 AM 75.9 °F - 73.9 °F 94% 29.97 in 6.0 mi SSE 5.8 mph - N/A   Mostly Cloudy
6:53 AM 75.9 °F - 73.9 °F 94% 29.98 in 9.0 mi South 6.9 mph - N/A   Overcast
7:53 AM 77.0 °F - 73.9 °F 90% 29.99 in 10.0 mi South 9.2 mph - N/A   Overcast
8:09 AM 77.0 °F - 73.9 °F 90% 29.99 in 10.0 mi SSW 8.1 mph - N/A   Mostly Cloudy
8:19 AM 77.0 °F - 73.9 °F 90% 29.99 in 10.0 mi SSW 8.1 mph - N/A   Mostly Cloudy
8:28 AM 77.0 °F - 73.9 °F 90% 29.99 in 10.0 mi South 8.1 mph - N/A   Mostly Cloudy
8:36 AM 78.1 °F - 73.9 °F 87% 29.98 in 10.0 mi South 10.4 mph - N/A   Scattered Clouds
8:53 AM 77.0 °F - 73.9 °F 90% 29.98 in 10.0 mi South 10.4 mph - N/A   Scattered Clouds
9:06 AM 78.1 °F - 73.9 °F 87% 29.98 in 10.0 mi SSW 11.5 mph - N/A   Mostly Cloudy
9:38 AM 78.1 °F - 73.0 °F 84% 29.97 in 10.0 mi SSW 10.4 mph - N/A   Partly Cloudy
9:53 AM 79.0 °F - 73.0 °F 82% 29.97 in 10.0 mi SW 10.4 mph - N/A   Clear
10:15 AM 80.1 °F 84.2 °F 73.0 °F 79% 29.97 in 10.0 mi SW 15.0 mph - N/A   Mostly Cloudy
10:53 AM 81.0 °F 86.2 °F 73.9 °F 79% 29.96 in 10.0 mi SSW 13.8 mph - N/A   Mostly Cloudy
11:19 AM 81.0 °F 86.2 °F 73.9 °F 79% 29.94 in 10.0 mi SW 12.7 mph - N/A   Scattered Clouds
11:53 AM 82.0 °F 87.4 °F 73.0 °F 74% 29.94 in 10.0 mi SSW 16.1 mph 21.9 mph N/A   Scattered Clouds
12:53 PM 82.0 °F 86.7 °F 72.0 °F 71% 29.93 in 10.0 mi SSW 13.8 mph 21.9 mph N/A   Mostly Cloudy
1:53 PM 82.9 °F 88.8 °F 73.0 °F 72% 29.91 in 10.0 mi SSW 16.1 mph - N/A   Clear
2:53 PM 82.9 °F 89.4 °F 73.9 °F 74% 29.89 in 10.0 mi South 17.3 mph - N/A   Clear
3:53 PM 82.0 °F 87.9 °F 73.9 °F 76% 29.88 in 10.0 mi SSW 17.3 mph - N/A   Clear
4:53 PM 84.0 °F 91.2 °F 73.9 °F 72% 29.87 in 10.0 mi SSW 15.0 mph - N/A   Clear
5:53 PM 82.0 °F 84.5 °F 66.9 °F 60% 29.86 in 10.0 mi SSW 17.3 mph 20.7 mph N/A   Clear
6:50 PM 78.8 °F - 71.6 °F 78% 29.91 in 3.0 mi West 28.8 mph 36.8 mph 0.06 in Rain , Thunderstorm Thunderstorms and Rain
6:53 PM 73.9 °F - 70.0 °F 87% 29.91 in 2.0 mi WSW 11.5 mph 36.8 mph 0.10 in Rain , Thunderstorm Heavy Thunderstorms and Rain
7:00 PM 73.0 °F - 69.1 °F 87% 29.88 in 1.5 mi SW 11.5 mph 24.2 mph 0.14 in Rain , Thunderstorm Heavy Thunderstorms and Rain
7:19 PM 73.9 °F - 69.1 °F 85% 29.88 in 10.0 mi West 3.5 mph - 0.16 in Thunderstorm Thunderstorm
7:29 PM 73.9 °F - 70.0 °F 87% 29.89 in 10.0 mi South 6.9 mph - 0.16 in Thunderstorm Mostly Cloudy
7:40 PM 73.0 °F - 71.1 °F 93% 29.88 in 10.0 mi South 4.6 mph - 0.16 in   Partly Cloudy
8:53 PM 75.9 °F - 73.0 °F 91% 29.88 in 10.0 mi SW 17.3 mph 21.9 mph 0.00 in   Scattered Clouds
9:38 PM 77.0 °F - 73.9 °F 90% 29.89 in 10.0 mi SW 10.4 mph 20.7 mph N/A   Scattered Clouds
9:53 PM 77.0 °F - 73.9 °F 90% 29.89 in 10.0 mi SW 15.0 mph - N/A   Scattered Clouds
10:53 PM 75.9 °F - 73.9 °F 94% 29.88 in 10.0 mi WSW 6.9 mph - N/A   Clear
11:53 PM 75.0 °F - 73.0 °F 94% 29.88 in 10.0 mi SSW 6.9 mph - N/A   Clear